EHI
0 0 0 0 0 0 0 0 0 0 0 0 0 1 2 5 8 12 16 18 17 14 11 8 6 7 9 8 7 7 7 7 7 7 6 5 4 2 1 0 0 0 1 2
0 0 0 0 0 0 0 0 0 0 0 0 0 1 2 5 8 11 12 13 12 11 10 7 6 6 6 5 6 6 5 5 5 5 4 3 3 1 0 0 0 0 1 2
0 0 0 0 0 0 0 0 0 0 0 0 0 0 1 5 8 9 7 6 7 8 7 5 5 5 3 2 3 3 3 3 3 3 3 2 1 0 0 0 1 1 1 2
0 0 0 0 0 0 0 0 0 0 0 0 0 0 0 3 6 7 5 4 4 5 5 4 4 3 2 1 1 1 1 1 1 1 2 2 1 0 0 0 1 1 1 1
0 0 0 0 0 0 0 0 0 0 0 0 0 0 0 1 3 3 3 3 4 4 3 4 3 3 3 1 0 0 0 0 0 0 1 1 1 0 0 0 1 1 0 0
0 0 0 0 0 0 0 0 0 0 0 0 0 0 0 0 1 1 1 1 2 3 3 3 3 3 3 2 0 0 0 0 0 0 0 0 0 0 0 0 0 0 0 1
0 0 0 0 0 0 0 0 0 0 0 0 0 0 0 0 0 0 0 0 1 1 1 2 3 3 2 1 0 0 0 0 0 0 0 0 0 0 0 0 0 0 0 1
0 0 0 0 0 0 0 0 0 0 0 0 0 0 0 0 0 0 0 0 0 0 0 1 2 2 1 0 0 0 0 0 0 0 0 0 0 0 0 0 0 0 0 1
0 0 0 0 0 0 0 0 0 0 0 0 0 0 0 0 0 0 0 0 0 0 0 0 1 1 0 0 0 0 0 0 0 0 0 0 0 0 0 0 0 0 0 0
0 0 0 0 0 0 0 0 0 0 0 0 0 0 0 0 0 0 0 0 0 0 0 0 0 0 0 0 0 0 0 0 0 0 0 0 0 0 0 0 0 0 0 0
0 0 0 0 0 0 0 0 0 0 0 0 0 0 0 0 0 0 0 0 0 0 0 0 0 0 0 0 0 0 0 0 0 0 0 0 0 0 0 0 0 0 0 0
0 0 0 0 0 0 0 0 0 0 0 0 0 0 0 0 0 0 0 0 0 0 0 0 0 0 0 0 0 0 0 0 0 0 0 0 0 0 0 0 0 0 0 0
0 0 0 0 0 0 0 0 0 0 0 0 0 0 0 0 0 0 0 0 0 0 0 0 0 0 0 0 0 0 0 0 0 0 0 0 0 0 0 0 0 0 0 0
0 0 0 0 0 0 0 0 0 0 0 0 0 0 0 0 0 0 0 0 0 0 0 0 0 0 0 0 0 0 0 0 0 0 0 0 0 0 0 0 0 0 0 0
0 0 0 0 0 0 0 0 0 0 0 0 0 0 0 0 0 0 0 0 0 0 0 0 0 0 0 0 0 0 0 0 0 0 0 0 0 0 0 0 0 0 0 0
0 0 0 0 0 0 0 0 0 0 0 0 0 0 0 0 0 0 0 0 0 0 0 0 0 0 0 0 0 0 0 0 0 0 0 0 0 0 0 0 0 0 0 0
0 0 0 0 0 0 0 0 0 0 0 0 0 0 0 0 0 0 0 0 0 0 0 0 0 0 0 0 0 0 0 0 0 0 0 0 0 0 0 0 0 0 0 0
0 0 0 0 0 0 0 0 0 0 0 0 0 0 0 0 0 0 0 0 0 0 0 0 0 0 0 0 0 0 0 0 0 0 0 0 0 0 0 0 0 0 0 0
0 0 0 0 0 0 0 0 0 0 0 0 0 0 0 0 0 0 0 0 0 0 0 0 0 0 0 0 0 0 0 0 0 0 0 0 0 0 0 0 0 0 0 0
0 0 0 0 0 0 0 0 0 0 0 0 0 0 0 0 0 0 0 0 0 0 0 0 0 0 0 0 0 0 0 0 0 0 0 0 0 0 0 0 0 0 0 0
0 0 0 0 0 0 0 0 0 0 0 0 0 0 0 0 0 0 0 0 0 0 0 0 0 0 0 0 0 0 0 0 0 0 0 0 0 0 0 0 0 0 0 0
0 0 0 0 0 0 0 0 0 0 0 0 0 0 0 0 0 0 0 0 0 0 0 0 0 0 0 0 0 0 0 0 0 0 0 0 0 0 0 0 0 0 0 0
0 0 0 0 0 0 0 0 0 0 0 0 0 0 0 0 0 0 0 0 0 0 0 0 0 0 0 0 0 0 0 0 0 0 0 0 0 0 0 0 0 0 0 0
0 0 0 0 0 0 0 0 0 0 0 0 0 0 0 0 0 0 0 0 0 0 0 0 0 0 0 0 0 0 0 0 0 0 0 0 0 0 0 0 0 0 0 0
0 0 0 0 0 0 0 0 0 0 0 0 0 0 0 0 0 0 0 0 0 0 0 0 0 0 0 0 0 0 0 0 0 0 0 0 0 0 0 0 0 0 0 0
0 0 0 0 0 0 0 0 0 0 0 0 0 0 0 0 0 0 0 0 0 0 0 0 0 0 0 0 0 0 0 0 0 0 0 0 0 0 0 0 0 0 0 0
Wind_Speed
3 5 2 4 5 4 2 1 3 4 2 3 4 4 4 5 6 6 6 6 6 5 5 6 6 6 6 6 6 5 4 3 3 2 2 2 2 2 2 2 3 2 2 2
4 1 5 4 4 3 2 2 3 3 2 4 5 5 4 4 4 4 5 5 5 5 6 7 7 7 7 6 6 5 5 4 3 2 1 1 2 2 2 2 4 5 4 3
4 4 2 3 2 3 3 4 4 2 2 4 5 3 1 3 4 5 5 5 5 5 5 6 7 8 8 8 7 5 5 5 4 3 2 3 2 2 2 3 3 5 5 4
3 4 2 1 3 5 4 5 5 3 3 0 2 1 2 2 3 4 5 4 5 5 5 5 7 8 8 8 7 6 6 5 5 3 3 3 3 2 2 2 2 4 5 5
3 2 2 3 4 6 5 1 3 3 4 2 1 2 4 2 4 4 5 4 4 4 4 5 6 7 7 7 7 7 6 6 6 5 4 4 4 3 3 3 4 4 5 6
4 3 3 4 2 3 4 6 6 5 5 1 2 3 5 3 4 5 6 5 4 4 5 6 6 7 7 8 8 8 8 8 7 7 7 6 6 5 5 6 5 5 4 6
3 3 2 2 1 2 4 6 4 5 4 4 1 2 5 1 1 5 8 7 5 4 5 5 6 7 7 9 9 8 9 9 8 8 8 7 7 7 7 6 6 5 5 5
1 4 3 1 3 4 3 7 7 4 4 4 2 4 3 2 3 5 8 8 7 5 5 5 6 6 7 8 8 8 9 9 9 9 8 8 8 6 6 7 6 5 5 5
4 4 3 1 1 5 4 2 5 7 2 1 4 4 1 4 5 7 8 8 7 5 6 6 6 6 7 7 8 8 8 9 9 9 9 9 8 8 7 7 7 5 5 6
5 2 3 1 4 5 4 7 5 5 4 3 4 4 5 8 8 8 9 8 7 6 6 5 5 6 6 7 7 8 9 9 9 9 8 8 8 8 8 8 9 8 8 8
3 3 3 3 1 1 3 3 5 4 4 5 3 7 4 7 10 12 10 9 9 8 6 5 5 5 6 7 7 8 8 9 9 9 8 9 8 8 9 8 8 8 8 8
2 4 1 3 2 1 3 5 6 4 3 4 3 8 2 2 7 10 11 10 9 8 7 6 5 6 6 7 7 7 7 8 7 7 8 8 8 8 9 9 8 8 8 8
3 5 2 5 5 2 1 2 4 5 4 4 4 7 2 4 7 9 12 11 10 9 8 6 6 6 6 6 6 7 7 7 7 7 8 8 8 9 9 8 8 8 9 9
4 4 5 6 6 3 2 2 4 5 4 4 7 7 3 5 8 9 11 11 10 9 8 7 6 5 5 5 5 6 6 6 7 7 8 8 8 7 7 7 8 8 8 8
4 2 2 4 4 2 3 3 4 5 6 7 7 5 6 9 10 11 11 12 11 10 9 8 6 5 5 5 5 5 5 5 6 7 7 7 6 7 7 8 8 8 8 8
4 2 1 3 2 1 3 4 3 4 4 4 3 4 2 8 10 11 12 13 12 10 10 8 7 6 6 6 5 5 5 4 5 6 6 6 6 6 6 6 7 7 7 7
2 2 2 3 4 2 4 3 2 2 2 4 5 4 8 9 11 13 13 12 11 11 10 9 8 6 6 5 5 4 4 4 5 5 5 5 5 5 5 6 7 7 6 7
2 3 2 1 3 2 5 1 1 1 2 1 2 5 8 8 8 7 8 11 11 11 11 9 8 7 5 5 5 4 4 4 5 5 5 5 5 6 6 6 6 5 5 5
4 5 3 2 0 5 4 1 0 1 2 1 6 9 9 11 8 4 5 8 9 9 9 8 7 7 6 6 5 5 5 4 4 5 4 4 5 5 5 5 5 4 4 5
3 3 4 2 1 4 4 3 1 2 3 1 7 12 12 9 5 4 8 10 11 10 9 8 8 7 7 5 5 6 5 4 4 4 4 4 5 5 5 4 4 3 4 4
3 2 2 2 3 5 3 5 1 0 4 2 7 11 10 5 4 9 12 11 11 10 10 9 9 7 6 5 6 6 5 4 3 4 5 5 4 4 4 4 3 4 4 5
0 1 1 2 2 5 4 3 0 3 0 4 7 7 7 8 11 12 13 13 12 11 10 9 8 7 5 5 6 6 4 3 4 5 5 5 4 3 4 5 4 4 4 5
1 3 3 4 5 4 2 2 3 1 3 4 7 9 11 11 12 12 12 12 11 11 9 7 8 7 5 5 6 6 4 4 5 5 5 4 4 4 3 4 4 3 3 3
3 1 1 3 4 2 3 2 2 2 3 6 10 11 11 12 13 13 12 11 10 9 8 7 8 7 5 4 5 5 4 5 6 6 4 4 4 4 4 3 3 3 2 2
4 1 1 3 3 2 3 3 3 6 9 11 10 9 11 15 14 13 12 11 9 8 6 7 8 7 6 5 5 5 5 6 6 5 4 4 4 4 4 4 3 2 1 1
4 4 4 4 3 2 2 1 4 7 9 11 12 10 10 12 13 12 11 9 9 8 7 7 7 7 6 6 5 4 5 6 6 4 3 3 3 3 3 3 3 5 3 3
Wind_Direction
76 80 185 218 191 182 169 207 276 276 297 78 103 112 99 104 111 115 110 101 89 67 44 38 36 37 40 38 41 40 37 38 56 90 101 96 80 53 41 33 23 31 21 356
46 284 229 194 169 168 184 245 273 311 28 102 107 91 87 94 109 121 118 109 92 70 44 32 34 35 33 31 27 26 26 28 35 54 82 96 96 81 61 31 25 23 24 13
178 239 190 157 175 189 217 201 221 209 39 63 108 76 116 95 102 108 102 97 87 78 53 32 31 29 29 24 17 15 22 27 30 43 76 89 77 64 40 28 24 20 27 30
223 251 205 205 222 177 247 227 196 166 125 206 131 182 248 161 144 139 125 112 91 73 58 45 36 30 26 17 15 20 23 29 34 44 73 100 103 90 55 41 35 31 31 35
235 213 191 229 229 178 211 101 119 123 130 79 42 143 269 176 193 179 150 125 97 79 67 56 43 35 29 22 20 23 29 33 38 48 61 77 80 83 78 62 52 44 38 35
239 236 207 215 227 169 140 74 60 53 73 78 230 165 258 213 205 169 152 135 118 95 72 59 47 40 34 31 29 28 35 36 38 52 58 69 76 75 72 62 52 44 37 32
326 309 267 181 93 44 95 89 36 6 13 253 256 186 245 200 150 165 159 145 123 99 76 59 48 40 37 35 34 35 38 39 40 52 56 59 66 67 64 61 56 51 43 37
143 298 291 198 174 171 156 137 154 190 221 272 315 232 251 92 89 119 130 127 115 100 83 68 60 50 43 41 38 40 45 45 44 50 53 55 59 64 61 59 60 56 51 46
173 256 306 7 79 130 128 133 154 130 148 276 279 275 265 134 123 126 129 125 121 108 91 75 62 55 50 48 44 45 50 51 50 51 55 54 55 62 63 62 60 56 50 55
161 222 304 323 70 40 117 139 99 115 148 252 282 263 236 194 184 164 153 143 131 116 99 86 74 64 57 55 52 51 55 57 54 52 55 60 56 60 63 65 62 58 54 53
134 152 319 20 86 174 96 91 101 111 150 163 253 268 228 199 183 171 161 148 139 127 116 100 87 75 66 59 57 54 55 58 56 55 56 58 57 58 61 61 59 58 57 57
120 117 299 291 290 183 150 159 147 150 210 176 193 265 345 205 163 153 146 142 135 128 120 112 101 87 74 66 63 60 58 60 59 61 61 61 61 61 61 59 55 58 59 58
116 106 60 351 347 358 102 152 148 129 125 160 186 261 55 94 123 137 140 140 135 129 123 115 103 92 84 76 71 67 63 62 62 65 65 62 60 61 60 58 57 59 61 59
111 113 158 196 227 234 242 203 162 138 161 209 222 237 185 157 147 141 140 139 136 134 131 123 110 100 92 85 79 76 68 63 67 69 68 64 59 60 61 61 59 57 59 61
84 121 215 239 245 219 232 239 204 196 199 205 240 232 216 180 161 148 143 141 140 139 137 132 122 112 103 95 85 79 72 65 70 75 73 68 63 63 62 62 61 59 58 61
47 89 20 320 309 278 259 256 239 227 214 221 241 254 159 135 133 142 149 150 149 147 142 137 132 125 118 111 102 91 80 73 76 79 78 76 72 66 64 65 66 64 58 56
12 73 57 296 311 348 293 260 214 226 228 199 219 206 139 142 153 157 158 156 154 150 145 142 140 136 129 122 115 103 92 83 81 81 82 84 83 78 71 74 70 66 59 58
158 111 123 303 9 278 261 296 165 178 288 224 143 137 148 142 130 133 149 151 148 147 146 143 139 133 126 119 111 104 97 94 92 87 85 85 86 82 75 73 70 65 61 60
165 145 130 119 287 289 309 2 152 180 300 150 132 125 116 115 97 95 127 135 140 141 138 136 134 129 125 122 119 111 101 98 95 96 96 96 98 94 86 81 74 68 71 65
88 107 119 129 186 261 281 319 264 98 313 151 142 142 141 134 136 165 145 129 126 126 127 128 124 119 120 120 117 108 106 103 103 105 101 96 97 97 93 87 76 70 78 74
32 51 122 171 227 268 295 304 347 102 269 168 150 151 149 146 148 138 133 127 127 128 128 127 125 125 129 128 117 110 110 113 115 106 98 91 91 97 97 84 74 84 85 78
261 128 178 157 212 264 332 354 59 237 194 123 134 136 124 114 116 123 128 130 131 128 127 129 127 125 125 126 121 115 115 112 103 97 92 87 84 95 104 99 87 82 88 84
235 198 199 201 223 262 311 290 289 194 134 129 133 128 127 124 128 128 130 131 130 130 130 129 129 124 118 121 125 123 124 113 103 95 90 87 80 71 85 103 105 91 87 92
296 174 198 269 272 303 330 347 8 81 116 126 131 132 132 131 135 131 132 132 131 129 130 129 128 127 126 124 120 126 125 112 104 97 86 81 83 75 67 70 81 97 102 105
263 270 257 275 284 336 8 30 64 88 104 111 114 121 132 134 136 135 135 135 134 129 125 131 135 136 135 127 121 125 123 116 107 101 95 88 82 85 75 67 60 80 91 181
223 200 194 238 226 201 255 124 112 117 122 126 121 115 124 134 135 133 133 133 133 131 127 129 130 132 131 129 126 127 130 126 118 108 104 105 103 95 91 86 62 44 54 79